QPF
0.06 0.08 0.08 0.09 0.10 0.07 0.06 0.06 0.08 0.09 0.07 0.05 0.03 0.02 0.03 0.03 0.04 0.03 0.02 0.03 0.06 0.07 0.10 0.11 0.10 0.09 0.09 0.09 0.08 0.07 0.06 0.06 0.05 0.05 0.05 0.05 0.07 0.08 0.07 0.06 0.05 0.05 0.05
0.03 0.03 0.03 0.04 0.05 0.04 0.04 0.06 0.07 0.08 0.09 0.08 0.05 0.04 0.03 0.04 0.04 0.04 0.02 0.03 0.06 0.10 0.10 0.10 0.10 0.09 0.08 0.09 0.09 0.07 0.06 0.06 0.04 0.04 0.04 0.04 0.04 0.05 0.06 0.06 0.06 0.07 0.07
0.03 0.03 0.04 0.03 0.03 0.03 0.04 0.05 0.06 0.06 0.08 0.08 0.08 0.08 0.08 0.07 0.05 0.04 0.04 0.04 0.06 0.08 0.10 0.11 0.11 0.08 0.08 0.09 0.08 0.09 0.09 0.08 0.06 0.05 0.04 0.04 0.03 0.04 0.04 0.05 0.05 0.05 0.05
0.03 0.05 0.07 0.04 0.04 0.05 0.05 0.06 0.07 0.05 0.06 0.08 0.10 0.12 0.12 0.07 0.06 0.06 0.06 0.06 0.08 0.08 0.08 0.09 0.09 0.08 0.08 0.11 0.12 0.12 0.10 0.10 0.07 0.06 0.05 0.04 0.05 0.05 0.05 0.05 0.04 0.03 0.04
0.05 0.05 0.05 0.06 0.06 0.07 0.07 0.08 0.09 0.07 0.07 0.07 0.09 0.12 0.12 0.10 0.08 0.09 0.08 0.05 0.05 0.04 0.05 0.07 0.08 0.08 0.09 0.13 0.15 0.13 0.11 0.10 0.08 0.07 0.06 0.04 0.04 0.04 0.04 0.03 0.03 0.04 0.03
0.06 0.08 0.07 0.08 0.07 0.07 0.07 0.08 0.09 0.08 0.07 0.06 0.07 0.09 0.09 0.09 0.06 0.06 0.05 0.03 0.02 0.02 0.02 0.05 0.06 0.09 0.12 0.11 0.11 0.12 0.13 0.14 0.15 0.12 0.08 0.06 0.04 0.03 0.03 0.03 0.03 0.04 0.03
0.06 0.07 0.08 0.11 0.09 0.07 0.06 0.07 0.09 0.09 0.09 0.07 0.07 0.09 0.08 0.06 0.05 0.05 0.04 0.03 0.02 0.02 0.03 0.05 0.05 0.04 0.06 0.09 0.09 0.09 0.10 0.11 0.15 0.12 0.07 0.06 0.05 0.04 0.04 0.05 0.05 0.04 0.04
0.03 0.04 0.05 0.06 0.07 0.08 0.07 0.07 0.08 0.09 0.10 0.09 0.08 0.08 0.07 0.06 0.06 0.04 0.03 0.04 0.05 0.05 0.04 0.04 0.05 0.05 0.04 0.06 0.07 0.06 0.05 0.07 0.10 0.09 0.07 0.06 0.05 0.05 0.06 0.06 0.06 0.07 0.06
0.03 0.04 0.05 0.04 0.04 0.04 0.06 0.08 0.10 0.10 0.10 0.10 0.10 0.09 0.07 0.06 0.06 0.05 0.04 0.05 0.07 0.07 0.07 0.06 0.05 0.05 0.05 0.06 0.06 0.05 0.05 0.05 0.07 0.10 0.07 0.05 0.06 0.05 0.06 0.06 0.07 0.08 0.06
0.04 0.05 0.06 0.06 0.05 0.05 0.05 0.06 0.10 0.12 0.11 0.11 0.11 0.09 0.08 0.07 0.06 0.07 0.07 0.06 0.07 0.08 0.08 0.08 0.07 0.06 0.05 0.03 0.04 0.04 0.04 0.04 0.04 0.07 0.09 0.08 0.07 0.06 0.07 0.08 0.09 0.09 0.06
0.08 0.09 0.08 0.06 0.05 0.05 0.05 0.06 0.07 0.10 0.12 0.13 0.13 0.12 0.10 0.07 0.07 0.08 0.09 0.09 0.09 0.08 0.08 0.07 0.08 0.09 0.06 0.04 0.03 0.03 0.04 0.03 0.04 0.05 0.06 0.07 0.08 0.06 0.05 0.06 0.08 0.08 0.06
0.12 0.21 0.21 0.15 0.11 0.10 0.08 0.08 0.08 0.08 0.08 0.11 0.12 0.12 0.10 0.10 0.10 0.09 0.09 0.07 0.07 0.07 0.07 0.05 0.04 0.05 0.06 0.05 0.04 0.03 0.03 0.03 0.03 0.04 0.05 0.06 0.06 0.05 0.04 0.04 0.05 0.06 0.06
0.06 0.12 0.19 0.19 0.15 0.14 0.12 0.10 0.09 0.09 0.10 0.10 0.10 0.10 0.10 0.11 0.11 0.11 0.10 0.07 0.05 0.05 0.06 0.07 0.06 0.04 0.04 0.04 0.04 0.04 0.03 0.03 0.03 0.03 0.03 0.06 0.05 0.03 0.03 0.04 0.04 0.04 0.04
0.03 0.04 0.07 0.10 0.10 0.08 0.07 0.07 0.07 0.09 0.09 0.09 0.08 0.07 0.08 0.09 0.09 0.11 0.10 0.05 0.05 0.06 0.06 0.05 0.04 0.04 0.04 0.04 0.04 0.04 0.04 0.04 0.03 0.03 0.02 0.05 0.06 0.03 0.02 0.04 0.04 0.03 0.04
0.03 0.02 0.02 0.04 0.04 0.03 0.03 0.04 0.03 0.04 0.05 0.05 0.05 0.06 0.05 0.05 0.05 0.06 0.08 0.08 0.07 0.06 0.06 0.05 0.04 0.03 0.03 0.04 0.04 0.03 0.04 0.05 0.04 0.04 0.03 0.04 0.05 0.03 0.03 0.04 0.03 0.04 0.04
0.02 0.02 0.01 0.02 0.02 0.02 0.02 0.03 0.02 0.03 0.04 0.03 0.04 0.05 0.03 0.03 0.04 0.05 0.05 0.07 0.07 0.06 0.05 0.05 0.04 0.04 0.03 0.04 0.03 0.02 0.03 0.05 0.05 0.05 0.03 0.02 0.03 0.03 0.05 0.05 0.05 0.05 0.04
0.02 0.02 0.02 0.02 0.01 0.01 0.01 0.02 0.02 0.05 0.05 0.04 0.03 0.04 0.04 0.03 0.03 0.05 0.06 0.05 0.04 0.04 0.04 0.04 0.04 0.04 0.03 0.04 0.03 0.02 0.02 0.03 0.04 0.04 0.04 0.03 0.03 0.04 0.05 0.04 0.04 0.04 0.04
0.02 0.02 0.02 0.02 0.02 0.01 0.01 0.01 0.01 0.04 0.07 0.05 0.03 0.03 0.04 0.04 0.03 0.04 0.04 0.04 0.03 0.03 0.03 0.03 0.04 0.04 0.04 0.03 0.04 0.03 0.02 0.03 0.04 0.04 0.05 0.05 0.05 0.06 0.07 0.05 0.04 0.04 0.03
0.02 0.02 0.02 0.02 0.01 0.01 0.01 0.01 0.01 0.02 0.05 0.07 0.05 0.04 0.04 0.04 0.03 0.03 0.04 0.04 0.02 0.02 0.03 0.03 0.03 0.03 0.04 0.03 0.02 0.04 0.04 0.04 0.05 0.05 0.06 0.06 0.07 0.07 0.07 0.05 0.04 0.03 0.02
0.01 0.01 0.02 0.02 0.01 0.01 0.01 0.01 0.01 0.01 0.01 0.03 0.06 0.07 0.06 0.05 0.03 0.04 0.04 0.04 0.03 0.02 0.02 0.02 0.02 0.02 0.02 0.03 0.03 0.02 0.03 0.04 0.04 0.05 0.06 0.06 0.07 0.07 0.07 0.06 0.05 0.04 0.02
0.02 0.02 0.02 0.02 0.02 0.03 0.03 0.02 0.02 0.01 0.02 0.02 0.03 0.05 0.06 0.08 0.06 0.04 0.04 0.04 0.04 0.03 0.02 0.01 0.01 0.02 0.01 0.02 0.02 0.03 0.03 0.03 0.03 0.04 0.04 0.05 0.05 0.05 0.05 0.06 0.05 0.04 0.03
0.02 0.02 0.03 0.03 0.04 0.04 0.04 0.04 0.03 0.02 0.02 0.02 0.02 0.03 0.04 0.06 0.08 0.07 0.05 0.05 0.05 0.04 0.04 0.03 0.02 0.01 0.01 0.01 0.02 0.02 0.02 0.02 0.03 0.05 0.05 0.06 0.06 0.05 0.04 0.03 0.04 0.03 0.02
0.04 0.04 0.05 0.06 0.06 0.06 0.06 0.06 0.05 0.03 0.02 0.02 0.02 0.02 0.03 0.05 0.07 0.09 0.10 0.08 0.06 0.06 0.05 0.04 0.03 0.02 0.01 0.02 0.02 0.02 0.01 0.01 0.01 0.02 0.03 0.03 0.04 0.04 0.04 0.04 0.04 0.03 0.02
0.05 0.06 0.07 0.08 0.10 0.10 0.11 0.12 0.11 0.07 0.05 0.03 0.02 0.02 0.02 0.03 0.03 0.06 0.08 0.09 0.07 0.05 0.04 0.03 0.03 0.02 0.02 0.02 0.02 0.03 0.02 0.01 0.01 0.01 0.01 0.02 0.03 0.03 0.04 0.04 0.04 0.03 0.03
0.04 0.05 0.06 0.07 0.07 0.08 0.11 0.13 0.12 0.09 0.06 0.04 0.03 0.04 0.03 0.03 0.04 0.05 0.05 0.06 0.05 0.05 0.05 0.05 0.04 0.04 0.04 0.03 0.02 0.02 0.02 0.02 0.02 0.02 0.02 0.02 0.03 0.03 0.03 0.02 0.03 0.04 0.03
0.02 0.02 0.02 0.03 0.03 0.04 0.08 0.11 0.11 0.09 0.07 0.05 0.05 0.05 0.05 0.05 0.05 0.05 0.05 0.04 0.03 0.02 0.03 0.04 0.06 0.05 0.03 0.03 0.03 0.02 0.02 0.02 0.02 0.02 0.02 0.02 0.02 0.03 0.03 0.03 0.02 0.02 0.04
MSLP
1005.85 1005.98 1006.24 1006.64 1007.18 1007.85 1008.60 1009.41 1010.22 1010.99 1011.67 1012.25 1012.72 1013.07 1013.32 1013.52 1013.67 1013.83 1014.00 1014.21 1014.47 1014.75 1015.07 1015.40 1015.74 1016.06 1016.37 1016.66 1016.95 1017.22 1017.50 1017.78 1018.08 1018.38 1018.68 1018.96 1019.22 1019.45 1019.62 1019.76 1019.85 1019.91 1019.97
1007.30 1007.43 1007.66 1008.01 1008.47 1009.03 1009.67 1010.37 1011.07 1011.75 1012.35 1012.86 1013.26 1013.54 1013.73 1013.84 1013.90 1013.96 1014.03 1014.16 1014.36 1014.61 1014.93 1015.28 1015.65 1016.01 1016.35 1016.65 1016.92 1017.17 1017.41 1017.65 1017.91 1018.18 1018.47 1018.75 1019.02 1019.26 1019.44 1019.57 1019.65 1019.69 1019.72
1008.49 1008.65 1008.89 1009.21 1009.62 1010.10 1010.66 1011.25 1011.86 1012.44 1012.96 1013.41 1013.74 1013.97 1014.09 1014.13 1014.10 1014.06 1014.04 1014.08 1014.20 1014.40 1014.70 1015.05 1015.44 1015.83 1016.20 1016.52 1016.80 1017.03 1017.24 1017.44 1017.66 1017.90 1018.17 1018.45 1018.72 1018.97 1019.16 1019.30 1019.38 1019.42 1019.44
1009.32 1009.53 1009.80 1010.12 1010.51 1010.95 1011.43 1011.94 1012.46 1012.96 1013.42 1013.81 1014.10 1014.29 1014.37 1014.35 1014.26 1014.13 1014.02 1013.97 1014.01 1014.15 1014.40 1014.74 1015.13 1015.54 1015.94 1016.28 1016.56 1016.79 1016.98 1017.15 1017.34 1017.55 1017.80 1018.07 1018.35 1018.61 1018.82 1018.98 1019.08 1019.12 1019.15
1009.78 1010.03 1010.34 1010.69 1011.08 1011.50 1011.93 1012.38 1012.83 1013.27 1013.67 1014.02 1014.29 1014.46 1014.52 1014.47 1014.35 1014.17 1013.99 1013.86 1013.82 1013.89 1014.08 1014.39 1014.76 1015.17 1015.57 1015.93 1016.22 1016.45 1016.63 1016.80 1016.97 1017.16 1017.40 1017.67 1017.95 1018.22 1018.46 1018.64 1018.76 1018.83 1018.88
1009.91 1010.21 1010.55 1010.93 1011.33 1011.74 1012.14 1012.54 1012.93 1013.32 1013.68 1014.00 1014.26 1014.44 1014.52 1014.49 1014.36 1014.17 1013.95 1013.77 1013.66 1013.66 1013.79 1014.04 1014.38 1014.77 1015.16 1015.51 1015.81 1016.05 1016.23 1016.39 1016.56 1016.75 1016.99 1017.26 1017.56 1017.85 1018.11 1018.32 1018.47 1018.58 1018.66
1009.83 1010.15 1010.52 1010.92 1011.33 1011.73 1012.11 1012.47 1012.81 1013.15 1013.47 1013.78 1014.05 1014.25 1014.37 1014.39 1014.30 1014.13 1013.92 1013.71 1013.56 1013.51 1013.57 1013.75 1014.03 1014.37 1014.72 1015.06 1015.35 1015.59 1015.79 1015.96 1016.14 1016.35 1016.60 1016.89 1017.20 1017.51 1017.80 1018.04 1018.23 1018.38 1018.50
1009.67 1009.97 1010.35 1010.76 1011.18 1011.56 1011.92 1012.23 1012.53 1012.82 1013.11 1013.40 1013.68 1013.92 1014.09 1014.18 1014.16 1014.05 1013.87 1013.68 1013.51 1013.41 1013.41 1013.52 1013.72 1014.00 1014.30 1014.60 1014.88 1015.11 1015.32 1015.51 1015.71 1015.95 1016.23 1016.54 1016.88 1017.23 1017.55 1017.83 1018.06 1018.24 1018.40
1009.52 1009.80 1010.16 1010.56 1010.96 1011.33 1011.65 1011.92 1012.17 1012.40 1012.65 1012.92 1013.20 1013.47 1013.70 1013.86 1013.92 1013.89 1013.78 1013.63 1013.47 1013.35 1013.30 1013.34 1013.47 1013.66 1013.89 1014.14 1014.38 1014.61 1014.82 1015.04 1015.28 1015.55 1015.87 1016.23 1016.61 1016.99 1017.35 1017.67 1017.94 1018.16 1018.36
1009.44 1009.68 1010.01 1010.39 1010.76 1011.10 1011.38 1011.60 1011.78 1011.96 1012.15 1012.39 1012.65 1012.93 1013.20 1013.42 1013.57 1013.62 1013.59 1013.50 1013.37 1013.25 1013.17 1013.15 1013.20 1013.32 1013.48 1013.67 1013.87 1014.08 1014.30 1014.54 1014.82 1015.14 1015.51 1015.92 1016.35 1016.78 1017.19 1017.55 1017.86 1018.12 1018.36
1009.42 1009.61 1009.90 1010.24 1010.58 1010.88 1011.11 1011.28 1011.40 1011.51 1011.64 1011.81 1012.03 1012.30 1012.58 1012.84 1013.06 1013.19 1013.24 1013.21 1013.14 1013.04 1012.95 1012.90 1012.89 1012.94 1013.04 1013.17 1013.33 1013.52 1013.75 1014.02 1014.34 1014.71 1015.14 1015.62 1016.11 1016.59 1017.05 1017.46 1017.81 1018.12 1018.39
1009.41 1009.55 1009.80 1010.09 1010.39 1010.65 1010.83 1010.95 1011.01 1011.04 1011.09 1011.19 1011.35 1011.57 1011.84 1012.11 1012.36 1012.55 1012.66 1012.71 1012.69 1012.64 1012.57 1012.51 1012.49 1012.50 1012.55 1012.64 1012.78 1012.96 1013.19 1013.49 1013.85 1014.28 1014.77 1015.30 1015.86 1016.40 1016.92 1017.38 1017.77 1018.12 1018.42
1009.37 1009.46 1009.66 1009.90 1010.16 1010.37 1010.51 1010.57 1010.57 1010.53 1010.50 1010.51 1010.60 1010.75 1010.96 1011.21 1011.47 1011.69 1011.86 1011.98 1012.03 1012.03 1012.02 1011.99 1011.97 1011.98 1012.03 1012.11 1012.24 1012.42 1012.67 1012.99 1013.39 1013.87 1014.41 1015.00 1015.61 1016.21 1016.77 1017.28 1017.72 1018.10 1018.42
1009.26 1009.31 1009.45 1009.64 1009.84 1010.00 1010.10 1010.11 1010.05 1009.95 1009.85 1009.78 1009.77 1009.84 1009.99 1010.19 1010.42 1010.66 1010.86 1011.03 1011.16 1011.24 1011.30 1011.34 1011.38 1011.43 1011.50 1011.60 1011.75 1011.95 1012.23 1012.58 1013.01 1013.52 1014.10 1014.73 1015.38 1016.02 1016.62 1017.16 1017.63 1018.04 1018.39
1009.10 1009.09 1009.17 1009.30 1009.44 1009.55 1009.60 1009.57 1009.47 1009.31 1009.14 1008.99 1008.91 1008.89 1008.96 1009.10 1009.30 1009.52 1009.75 1009.97 1010.17 1010.34 1010.49 1010.62 1010.75 1010.88 1011.02 1011.18 1011.37 1011.61 1011.91 1012.28 1012.74 1013.27 1013.86 1014.51 1015.17 1015.82 1016.44 1017.00 1017.49 1017.91 1018.27
1008.92 1008.85 1008.86 1008.92 1008.99 1009.04 1009.04 1008.97 1008.83 1008.64 1008.42 1008.21 1008.06 1007.97 1007.97 1008.04 1008.19 1008.39 1008.63 1008.89 1009.15 1009.41 1009.66 1009.91 1010.15 1010.38 1010.62 1010.86 1011.11 1011.40 1011.74 1012.13 1012.59 1013.12 1013.71 1014.34 1014.98 1015.62 1016.23 1016.79 1017.28 1017.71 1018.07
1008.77 1008.63 1008.56 1008.54 1008.54 1008.53 1008.48 1008.37 1008.20 1007.98 1007.74 1007.50 1007.30 1007.16 1007.10 1007.12 1007.22 1007.39 1007.62 1007.91 1008.22 1008.55 1008.91 1009.26 1009.62 1009.97 1010.31 1010.64 1010.98 1011.32 1011.69 1012.10 1012.55 1013.06 1013.61 1014.19 1014.80 1015.40 1015.98 1016.51 1016.98 1017.40 1017.76
1008.68 1008.47 1008.31 1008.21 1008.13 1008.06 1007.96 1007.82 1007.63 1007.40 1007.15 1006.91 1006.69 1006.52 1006.42 1006.39 1006.45 1006.59 1006.81 1007.09 1007.43 1007.82 1008.24 1008.69 1009.15 1009.61 1010.06 1010.48 1010.89 1011.29 1011.69 1012.10 1012.54 1013.01 1013.51 1014.04 1014.58 1015.12 1015.65 1016.14 1016.58 1016.98 1017.34
1008.64 1008.36 1008.13 1007.95 1007.80 1007.66 1007.52 1007.35 1007.15 1006.94 1006.70 1006.47 1006.25 1006.08 1005.96 1005.90 1005.92 1006.02 1006.20 1006.46 1006.80 1007.20 1007.67 1008.17 1008.71 1009.24 1009.77 1010.28 1010.75 1011.20 1011.63 1012.05 1012.46 1012.89 1013.34 1013.81 1014.29 1014.76 1015.23 1015.68 1016.09 1016.48 1016.83
1008.61 1008.29 1008.00 1007.75 1007.54 1007.34 1007.16 1006.98 1006.79 1006.59 1006.38 1006.17 1005.98 1005.82 1005.70 1005.62 1005.60 1005.65 1005.77 1005.98 1006.28 1006.66 1007.12 1007.63 1008.20 1008.78 1009.36 1009.92 1010.45 1010.94 1011.39 1011.81 1012.22 1012.62 1013.03 1013.45 1013.87 1014.30 1014.72 1015.13 1015.52 1015.89 1016.25
1008.54 1008.18 1007.86 1007.56 1007.30 1007.08 1006.87 1006.68 1006.50 1006.32 1006.15 1005.99 1005.83 1005.69 1005.57 1005.47 1005.41 1005.39 1005.45 1005.58 1005.80 1006.11 1006.51 1007.00 1007.54 1008.13 1008.73 1009.32 1009.88 1010.41 1010.89 1011.33 1011.74 1012.14 1012.53 1012.93 1013.32 1013.72 1014.12 1014.51 1014.89 1015.27 1015.63
1008.38 1008.01 1007.66 1007.35 1007.07 1006.82 1006.61 1006.42 1006.26 1006.11 1005.98 1005.86 1005.73 1005.61 1005.49 1005.36 1005.25 1005.17 1005.13 1005.16 1005.28 1005.49 1005.80 1006.21 1006.71 1007.27 1007.86 1008.45 1009.04 1009.59 1010.11 1010.58 1011.03 1011.45 1011.86 1012.26 1012.66 1013.06 1013.46 1013.86 1014.25 1014.63 1015.01
1008.10 1007.74 1007.39 1007.08 1006.79 1006.54 1006.33 1006.15 1006.01 1005.90 1005.80 1005.71 1005.62 1005.51 1005.38 1005.23 1005.07 1004.91 1004.77 1004.69 1004.68 1004.77 1004.97 1005.29 1005.71 1006.21 1006.77 1007.37 1007.97 1008.55 1009.11 1009.63 1010.13 1010.60 1011.05 1011.50 1011.94 1012.37 1012.80 1013.22 1013.63 1014.03 1014.42
1007.71 1007.37 1007.04 1006.74 1006.46 1006.22 1006.03 1005.87 1005.75 1005.66 1005.59 1005.53 1005.46 1005.35 1005.21 1005.03 1004.81 1004.57 1004.34 1004.15 1004.02 1004.00 1004.09 1004.30 1004.64 1005.08 1005.61 1006.19 1006.80 1007.42 1008.02 1008.61 1009.17 1009.71 1010.24 1010.75 1011.24 1011.73 1012.19 1012.65 1013.08 1013.49 1013.89
1007.27 1006.94 1006.64 1006.35 1006.10 1005.88 1005.70 1005.56 1005.46 1005.39 1005.35 1005.30 1005.24 1005.14 1004.99 1004.77 1004.51 1004.20 1003.89 1003.61 1003.39 1003.27 1003.26 1003.40 1003.66 1004.06 1004.55 1005.13 1005.75 1006.40 1007.05 1007.69 1008.32 1008.94 1009.53 1010.11 1010.67 1011.20 1011.71 1012.18 1012.63 1013.04 1013.42
1006.83 1006.51 1006.23 1005.96 1005.73 1005.53 1005.37 1005.25 1005.17 1005.13 1005.10 1005.07 1005.01 1004.91 1004.74 1004.51 1004.22 1003.87 1003.51 1003.18 1002.90 1002.71 1002.65 1002.73 1002.95 1003.31 1003.79 1004.36 1004.99 1005.66 1006.35 1007.05 1007.73 1008.40 1009.05 1009.68 1010.28 1010.85 1011.38 1011.86 1012.29 1012.68 1013.03
Thickness
5760 5760 5759 5759 5759 5758 5758 5757 5757 5756 5756 5756 5756 5756 5756 5756 5755 5755 5755 5755 5755 5755 5754 5753 5752 5750 5749 5747 5746 5744 5741 5740 5738 5736 5735 5733 5731 5729 5727 5725 5723 5722 5720
5760 5759 5757 5757 5757 5757 5757 5756 5756 5755 5755 5755 5755 5755 5755 5755 5755 5755 5755 5755 5755 5754 5754 5753 5752 5750 5749 5747 5746 5744 5742 5740 5738 5736 5735 5733 5731 5729 5728 5726 5724 5722 5720
5759 5758 5757 5756 5757 5757 5756 5756 5755 5755 5754 5754 5754 5754 5754 5754 5754 5754 5754 5754 5754 5753 5753 5752 5751 5750 5749 5747 5746 5744 5742 5741 5739 5737 5735 5733 5731 5730 5728 5726 5724 5722 5720
5758 5757 5756 5756 5756 5756 5755 5755 5754 5754 5753 5753 5753 5753 5752 5752 5752 5752 5752 5752 5752 5751 5751 5751 5750 5750 5749 5747 5746 5744 5742 5741 5739 5737 5735 5733 5731 5730 5728 5726 5724 5722 5720
5758 5756 5755 5755 5755 5754 5753 5754 5753 5752 5751 5751 5750 5750 5750 5750 5750 5750 5750 5750 5750 5749 5749 5749 5749 5748 5748 5747 5745 5744 5742 5740 5738 5736 5734 5733 5731 5729 5727 5725 5723 5721 5720
5756 5755 5754 5754 5754 5753 5752 5751 5750 5751 5750 5749 5749 5748 5748 5747 5748 5748 5748 5747 5747 5746 5746 5746 5746 5746 5746 5745 5744 5743 5741 5739 5737 5735 5733 5731 5730 5728 5726 5725 5723 5721 5719
5754 5753 5753 5752 5751 5750 5749 5749 5748 5747 5747 5747 5744 5743 5744 5745 5745 5745 5745 5744 5744 5744 5744 5743 5743 5743 5743 5742 5741 5741 5740 5738 5736 5734 5732 5731 5729 5727 5725 5724 5722 5720 5718
5752 5752 5750 5750 5749 5747 5746 5746 5745 5743 5743 5744 5741 5737 5735 5737 5741 5743 5742 5742 5742 5741 5741 5741 5740 5740 5739 5739 5739 5738 5738 5737 5736 5734 5732 5730 5729 5727 5725 5723 5721 5719 5717
5750 5749 5748 5748 5746 5745 5743 5743 5742 5740 5739 5739 5739 5735 5731 5728 5731 5736 5738 5738 5738 5738 5738 5737 5737 5737 5736 5736 5736 5735 5735 5734 5734 5733 5731 5730 5728 5726 5724 5722 5720 5718 5716
5747 5746 5745 5744 5743 5742 5741 5740 5739 5738 5736 5734 5735 5735 5734 5732 5727 5727 5730 5733 5734 5734 5734 5734 5733 5733 5733 5732 5732 5733 5732 5732 5731 5730 5729 5728 5726 5725 5723 5721 5719 5718 5716
5744 5743 5742 5741 5740 5739 5738 5737 5736 5735 5734 5732 5731 5730 5729 5728 5727 5723 5722 5725 5727 5729 5730 5730 5730 5729 5729 5729 5729 5729 5729 5728 5728 5727 5727 5726 5725 5723 5721 5720 5719 5717 5715
5740 5740 5739 5738 5737 5736 5735 5734 5733 5732 5731 5729 5728 5727 5726 5723 5721 5720 5718 5718 5719 5723 5725 5725 5725 5725 5725 5726 5726 5725 5725 5725 5724 5724 5724 5723 5722 5721 5720 5719 5717 5715 5713
5735 5735 5735 5734 5733 5733 5732 5731 5730 5728 5727 5726 5724 5723 5723 5722 5721 5718 5716 5714 5714 5717 5719 5721 5721 5721 5721 5721 5722 5722 5722 5721 5721 5721 5720 5720 5719 5719 5718 5717 5715 5713 5712
5732 5732 5732 5731 5730 5729 5728 5727 5726 5724 5723 5721 5721 5720 5719 5718 5717 5715 5713 5711 5709 5710 5712 5714 5717 5717 5717 5717 5718 5718 5718 5718 5717 5717 5717 5716 5716 5716 5715 5714 5713 5711 5709
5729 5729 5728 5727 5725 5724 5723 5722 5720 5719 5718 5717 5716 5716 5715 5714 5714 5713 5712 5710 5706 5703 5705 5708 5710 5712 5712 5713 5713 5713 5713 5713 5713 5712 5713 5713 5713 5712 5711 5710 5709 5707 5706
5725 5724 5723 5722 5720 5719 5718 5716 5715 5714 5713 5712 5711 5711 5710 5710 5709 5709 5708 5707 5705 5703 5701 5703 5704 5706 5707 5708 5707 5708 5708 5708 5708 5708 5708 5709 5708 5708 5707 5706 5705 5704 5702
5721 5719 5718 5716 5715 5713 5712 5711 5710 5709 5708 5707 5706 5705 5705 5705 5704 5704 5703 5702 5700 5699 5697 5698 5699 5700 5700 5701 5702 5702 5703 5703 5703 5704 5704 5704 5704 5703 5702 5701 5700 5699 5698
5716 5714 5713 5711 5709 5708 5707 5705 5704 5703 5702 5701 5700 5699 5699 5699 5698 5698 5697 5696 5695 5695 5694 5692 5693 5693 5694 5695 5695 5696 5696 5697 5697 5698 5699 5699 5698 5698 5697 5696 5695 5695 5694
5711 5709 5707 5705 5704 5702 5701 5700 5698 5697 5696 5695 5694 5694 5693 5693 5692 5691 5691 5690 5690 5690 5689 5687 5686 5687 5687 5688 5688 5688 5689 5689 5691 5692 5692 5692 5692 5692 5692 5691 5691 5690 5689
5706 5704 5702 5700 5698 5697 5695 5694 5692 5691 5690 5689 5689 5688 5688 5687 5686 5686 5685 5684 5684 5683 5681 5680 5680 5680 5680 5680 5680 5680 5680 5681 5683 5684 5684 5685 5685 5685 5685 5685 5685 5684 5683
5701 5698 5696 5694 5692 5691 5689 5687 5686 5685 5683 5683 5682 5682 5682 5682 5681 5680 5680 5679 5678 5676 5675 5673 5672 5672 5672 5672 5672 5672 5672 5673 5675 5676 5676 5677 5677 5677 5677 5678 5678 5677 5676
5694 5692 5690 5688 5686 5685 5684 5682 5681 5679 5677 5675 5674 5674 5675 5675 5675 5674 5674 5674 5673 5671 5669 5667 5666 5665 5666 5666 5666 5665 5665 5665 5666 5668 5667 5668 5669 5669 5669 5670 5670 5670 5669
5688 5685 5683 5682 5680 5679 5678 5677 5675 5673 5671 5670 5668 5668 5668 5668 5667 5667 5667 5665 5664 5665 5664 5661 5660 5660 5660 5660 5659 5658 5658 5658 5658 5659 5658 5659 5661 5661 5662 5662 5662 5661 5661
5682 5679 5677 5675 5674 5673 5672 5671 5669 5667 5665 5663 5662 5661 5661 5660 5660 5658 5658 5657 5656 5656 5656 5655 5655 5655 5655 5654 5653 5653 5651 5650 5650 5650 5649 5650 5651 5652 5654 5654 5654 5654 5654
5675 5673 5671 5669 5667 5666 5665 5664 5662 5659 5657 5656 5655 5654 5653 5653 5652 5650 5649 5648 5648 5648 5648 5648 5648 5647 5647 5647 5646 5645 5643 5642 5642 5642 5641 5640 5642 5643 5644 5645 5647 5646 5646
5668 5666 5663 5661 5659 5658 5657 5656 5654 5651 5649 5648 5647 5646 5646 5645 5644 5642 5640 5640 5640 5640 5640 5640 5639 5639 5638 5639 5638 5637 5636 5634 5634 5633 5633 5632 5632 5633 5635 5637 5638 5638 5639